SCP
0 0 0 0 0 0 -0 0 0 0 0 -0 0 0 -0 0 -0 -0 -0 -0 -1 -1 -0 -0 -0 0 0 0 0 0 0 0 0 0 0 0 0 0 0 0 0 0 0 0 0 0 0 0 0
0 0 0 0 0 0 0 0 0 0 0 0 -0 0 0 0 -0 -0 -0 0 -0 -0 -0 -0 -0 -0 0 0 0 0 0 0 0 0 0 0 0 0 0 0 0 0 0 0 0 0 0 0 0
0 0 0 0 0 -0 0 0 0 0 0 0 0 0 0 0 0 -0 0 0 0 0 0 0 0 0 0 0 0 0 0 0 0 0 0 0 0 0 0 0 0 0 0 0 0 0 0 0 0
0 0 0 0 0 0 0 0 0 0 0 0 0 0 0 0 0 0 -0 0 -0 0 0 0 0 0 0 0 0 0 0 0 0 0 0 0 0 0 0 0 0 0 0 0 0 0 0 0 0
-0 0 0 0 -0 0 0 0 0 0 0 0 0 0 0 0 0 -0 -0 0 1 0 0 0 1 0 0 0 0 0 0 0 0 0 0 0 0 0 0 0 0 0 0 0 0 0 0 0 0
0 -0 -0 0 0 0 0 0 0 0 0 0 0 0 0 0 0 0 0 0 0 1 0 0 0 0 0 0 0 0 0 0 0 0 0 0 0 0 0 0 0 0 0 0 0 0 0 0 0
0 -0 0 -0 0 0 0 0 0 0 0 0 0 0 0 0 0 0 -0 -0 0 1 1 1 0 1 0 1 0 0 0 0 0 0 0 0 0 0 0 0 0 0 0 0 0 0 0 0 0
0 0 -0 -0 0 0 0 0 0 0 0 0 0 0 0 0 0 0 0 0 -0 0 1 1 1 1 1 0 0 0 1 1 1 1 1 1 0 0 0 0 0 0 0 0 1 1 1 0 0
0 0 -0 -0 0 0 0 0 0 0 0 0 0 0 0 0 0 0 0 -0 -0 0 0 0 4 1 0 1 1 1 1 1 1 1 0 0 0 0 0 0 0 0 0 0 0 1 1 0 0
0 0 0 0 0 0 0 0 0 0 -0 -0 0 0 0 0 0 0 0 0 0 0 0 0 0 0 1 -0 2 1 2 -0 1 0 0 1 0 0 0 0 0 1 1 1 1 1 1 0 0
-0 0 0 0 0 0 0 0 0 0 0 0 0 0 0 0 0 0 0 0 0 0 0 0 0 0 0 1 3 3 0 1 1 1 0 0 1 0 0 0 1 1 1 1 1 1 1 0 0
0 0 0 0 0 0 0 0 0 0 0 0 0 0 0 0 0 0 0 0 0 0 0 0 0 0 0 0 0 2 1 2 2 2 2 3 3 1 1 1 1 1 1 1 0 0 0 0 0
0 0 0 0 0 0 0 0 0 0 0 0 0 0 0 0 0 0 0 0 0 0 0 0 0 0 0 0 0 0 0 0 1 1 1 4 1 -0 2 2 1 2 1 1 1 0 0 0 0
0 0 0 0 0 0 0 -0 -0 0 0 0 0 0 0 0 0 0 0 0 0 0 0 0 0 0 0 0 1 0 0 1 0 1 1 0 3 6 3 3 2 2 1 1 1 1 1 1 0
0 0 -0 0 0 0 0 -0 -0 0 0 0 0 0 0 0 0 0 0 0 0 0 0 0 0 0 0 0 0 0 0 0 0 0 1 3 5 4 5 5 4 3 3 2 2 1 1 1 1
0 -0 -0 0 0 0 0 0 0 0 0 0 0 0 0 0 0 0 0 0 0 0 0 0 0 0 1 1 1 0 0 0 0 0 0 5 3 2 5 4 2 2 2 2 2 2 1 1 1
0 0 -0 0 0 0 0 0 0 0 0 0 0 0 0 0 0 0 0 0 0 0 0 0 0 0 0 0 0 0 0 0 0 0 -0 4 3 2 1 1 3 4 3 2 3 3 2 2 1
0 0 0 0 0 0 0 0 0 0 0 0 0 0 0 0 0 0 0 0 0 0 0 0 0 0 1 1 1 0 0 0 0 0 1 1 5 4 1 3 4 4 3 2 3 2 1 2 1
0 0 0 0 0 0 0 0 0 0 0 0 0 0 0 0 0 0 0 0 0 0 0 0 0 0 0 0 1 0 0 0 0 0 1 1 2 3 6 4 6 5 3 2 2 1 1 1 1
0 0 0 0 0 0 0 0 0 0 0 0 0 0 0 0 0 0 0 0 0 0 0 0 -0 -0 0 0 0 1 0 0 -0 0 1 2 2 5 6 6 3 3 4 2 2 2 2 1 1
0 0 0 0 0 0 0 0 0 0 0 0 0 0 0 0 0 0 0 0 0 0 0 1 0 -0 -0 0 0 1 0 1 0 0 1 4 3 1 0 1 3 3 4 1 2 2 2 1 1
0 0 0 0 0 0 0 0 0 0 0 0 0 0 0 0 0 0 0 0 0 0 0 1 1 0 -0 0 0 1 1 1 1 1 0 4 3 0 0 0 2 3 1 1 2 1 1 1 0
0 0 0 0 0 0 0 0 0 0 0 0 0 0 0 0 0 0 0 0 0 0 0 0 0 0 0 -0 0 0 1 1 1 1 0 0 1 0 0 0 0 0 0 0 0 0 0 0 0
0 0 0 0 0 0 0 0 0 0 0 0 0 0 0 0 0 0 0 0 0 0 0 0 1 1 0 -0 0 0 0 1 1 1 1 -0 0 0 0 0 0 0 0 0 0 0 0 0 1
0 0 0 0 0 0 0 0 0 0 0 0 0 0 0 0 0 0 0 0 0 0 1 0 0 1 0 -0 0 0 0 0 1 2 2 1 0 0 0 1 0 0 0 0 0 0 1 1 1
0 0 0 0 0 0 0 0 0 0 0 0 0 0 0 0 0 0 0 0 0 0 0 0 0 0 0 0 0 0 0 0 0 2 1 1 1 0 1 0 0 0 0 1 1 1 1 1 1
0 0 0 0 0 0 0 0 0 0 0 0 0 0 0 0 0 0 0 0 0 0 0 0 0 -0 0 0 0 0 0 0 0 0 1 0 0 1 1 0 0 0 0 0 0 1 0 0 0
0 0 0 0 0 0 0 0 0 0 0 0 0 0 0 0 0 0 0 0 0 0 0 0 0 -0 0 0 -0 0 0 0 0 0 1 0 0 0 0 -0 0 0 0 0 0 0 0 0 0
0 0 0 0 0 0 0 0 0 0 0 0 0 0 0 0 0 0 0 0 0 0 0 0 0 0 0 0 0 -0 -0 -0 0 -0 0 0 0 0 0 0 0 0 0 0 0 0 0 0 0
0 0 0 0 0 0 0 0 0 0 0 0 0 0 0 0 0 0 0 0 0 0 0 0 0 0 0 0 0 0 0 -0 0 0 0 -0 0 0 0 0 0 0 0 0 0 0 0 0 0
Wind_Speed_500mb
12 18 35 31 12 15 32 5 11 25 25 31 24 47 43 24 14 15 5 17 10 4 8 19 21 18 14 12 9 9 9 8 8 5 3 2 3 2 1 5 7 10 13 15 16 15 16 17 18
14 7 20 21 17 26 21 27 27 22 20 23 12 43 51 36 31 29 26 15 14 6 6 18 19 17 13 10 8 7 7 7 6 3 2 4 5 5 4 6 8 10 13 16 16 15 15 16 18
10 10 16 10 24 27 4 10 23 17 12 22 19 40 33 17 30 30 24 21 13 7 8 13 12 15 11 8 5 5 6 5 4 3 1 3 7 8 8 10 10 12 14 18 19 17 17 18 20
9 13 18 13 34 18 20 21 17 15 6 17 17 25 35 28 15 20 11 11 20 20 8 11 8 9 8 7 5 3 2 3 2 1 1 4 7 9 11 14 14 15 17 20 23 22 22 22 20
14 7 3 31 42 26 14 16 17 16 16 23 27 24 33 25 16 9 4 6 22 11 8 10 4 8 10 9 9 6 3 2 2 2 4 6 8 11 14 17 19 19 20 22 24 27 28 27 27
25 29 17 36 36 8 9 13 18 15 11 14 25 9 24 21 22 24 12 10 6 19 8 8 7 8 13 14 12 10 8 7 7 8 9 10 11 14 16 19 21 23 24 24 26 28 31 32 32
28 23 36 41 21 12 15 11 14 21 8 23 24 19 35 30 19 18 16 13 11 8 14 11 6 4 14 18 15 13 12 12 13 13 14 14 16 17 19 21 24 26 27 28 29 30 33 34 36
35 25 41 37 16 26 21 6 8 15 17 10 11 14 27 25 20 16 16 14 15 12 11 2 7 10 13 17 14 7 14 19 19 19 20 21 22 22 23 24 27 29 30 31 32 34 36 37 38
22 20 26 33 7 25 22 7 14 4 24 8 10 15 18 20 21 20 18 16 18 13 13 16 23 4 24 34 37 27 26 23 23 23 25 28 29 28 28 27 29 28 30 33 36 38 38 39 41
19 19 17 27 27 24 17 6 18 12 16 13 10 10 21 24 23 22 22 25 22 24 23 21 21 19 22 8 20 37 25 17 25 26 27 32 35 28 21 28 27 32 33 36 39 41 42 43 44
23 9 13 15 21 18 19 14 6 15 12 27 21 20 26 26 27 23 21 23 25 28 27 27 29 31 4 21 32 38 43 23 44 35 33 32 17 19 17 26 31 35 28 28 30 40 41 41 43
5 10 16 18 14 8 10 18 14 12 21 17 15 20 25 25 24 23 23 23 26 27 28 25 32 38 33 20 19 30 43 26 31 32 35 14 14 24 26 28 29 31 32 33 34 33 30 34 41
5 6 4 4 3 6 13 16 22 19 19 1 17 20 24 24 19 17 21 17 22 28 32 35 35 41 47 42 32 27 31 36 24 33 23 30 31 24 40 31 35 27 29 29 32 28 39 39 45
10 6 9 8 9 6 14 25 26 24 20 5 18 26 20 20 16 16 14 23 26 28 30 36 39 41 42 45 41 38 42 30 40 45 50 34 36 37 30 48 43 37 37 36 43 44 43 35 40
10 17 18 17 12 6 7 30 22 31 16 13 27 28 13 17 11 14 19 23 27 28 34 36 35 33 37 43 44 40 39 36 44 45 52 46 39 25 36 37 42 42 38 44 40 46 53 50 42
22 26 27 28 27 17 10 17 9 9 19 28 26 22 14 14 8 14 18 23 26 29 34 37 37 38 37 41 42 46 41 36 44 51 47 54 50 55 35 37 30 34 39 39 40 46 46 50 63
20 13 14 3 7 9 18 28 29 33 26 24 24 18 10 8 8 11 16 21 25 29 36 42 41 42 45 46 49 46 48 48 48 52 55 39 40 44 24 23 28 35 34 31 39 42 41 48 53
25 24 21 20 22 20 26 31 27 39 41 39 26 9 8 3 5 10 13 18 23 29 38 44 50 52 53 48 44 45 49 49 52 50 56 50 53 51 39 33 35 49 46 46 44 49 44 47 50
21 23 25 27 14 25 25 35 40 48 49 48 10 14 7 1 6 7 15 17 19 24 31 41 56 60 53 48 47 47 45 41 49 53 56 60 52 40 42 38 37 47 48 41 41 50 45 50 53
23 27 27 28 30 32 37 42 43 39 11 21 18 6 3 5 6 12 16 21 24 29 29 33 48 62 65 54 51 50 49 51 47 40 64 65 63 61 42 38 40 42 43 37 38 37 41 49 49
23 22 25 32 36 36 39 37 37 37 20 20 14 12 9 16 2 9 17 27 31 35 36 30 40 49 62 52 54 44 49 33 48 49 38 64 70 74 67 47 60 51 47 43 34 37 37 45 49
20 31 30 34 32 26 31 31 39 5 15 25 29 29 27 4 4 7 14 22 28 37 37 28 33 46 58 57 57 48 41 43 37 41 52 58 60 72 57 57 51 44 37 23 28 38 42 48 50
25 25 30 34 37 40 38 21 10 12 24 7 16 29 14 11 13 10 19 23 32 39 47 34 40 45 50 57 57 51 44 40 42 37 41 23 35 55 52 52 36 46 32 30 34 45 57 55 51
18 30 32 40 33 24 28 34 23 28 36 31 32 31 33 29 19 20 27 33 33 33 34 42 44 42 48 51 46 46 42 44 37 40 39 42 38 42 42 33 43 33 24 30 52 51 54 63 59
26 28 20 12 18 21 44 25 30 45 43 41 41 46 51 56 38 40 46 36 37 36 41 39 36 41 46 49 44 45 37 32 42 41 30 33 29 26 48 11 13 28 22 34 30 42 53 59 60
26 19 12 30 25 35 32 22 8 28 39 44 46 55 52 49 41 61 61 39 48 39 29 50 40 34 53 41 49 42 39 39 39 49 44 37 31 28 21 26 12 14 12 20 31 48 54 59 59
19 20 23 22 28 29 20 27 16 30 32 22 35 24 24 29 24 24 42 33 51 23 29 40 36 38 44 43 50 45 41 40 41 44 52 51 31 9 8 22 24 26 24 33 39 45 52 53 55
30 23 17 13 19 30 27 35 23 43 29 17 26 39 36 29 32 40 48 53 24 47 27 34 34 30 35 43 54 52 43 43 40 40 54 46 40 30 40 46 43 43 39 39 40 42 44 45 46
23 20 25 20 16 22 30 19 36 38 25 30 32 33 26 27 39 42 44 48 54 30 35 32 32 38 39 40 44 54 54 44 44 47 52 47 44 38 34 38 41 39 36 37 38 38 36 37 39
7 21 17 13 20 20 22 29 30 25 28 8 12 31 24 25 37 42 30 34 33 34 30 38 43 42 44 41 39 40 51 48 43 37 34 39 54 38 33 32 32 33 35 34 34 37 35 33 32
Wind_Direction_500mb
291 340 324 297 254 229 262 54 12 32 5 5 354 59 94 65 98 144 147 13 124 296 143 130 124 121 121 104 93 95 89 82 78 82 114 231 287 313 162 153 158 166 172 178 181 192 201 206 217
304 9 288 278 256 271 28 355 40 17 5 330 314 54 58 31 84 115 103 99 69 351 137 131 129 130 133 120 109 93 74 71 66 70 149 230 259 265 238 205 189 188 191 192 199 208 217 221 227
341 336 295 236 259 264 42 53 14 357 5 356 44 57 52 40 45 87 82 89 109 110 109 94 136 141 145 135 129 113 88 73 67 71 86 242 257 258 238 227 219 219 218 215 218 225 226 228 233
306 294 254 287 280 10 37 56 342 340 54 20 4 89 68 47 50 57 61 123 90 111 16 5 162 160 166 167 178 172 120 100 85 64 249 252 253 257 250 237 234 240 237 232 230 232 235 241 248
246 247 349 288 284 295 67 40 325 340 17 10 345 96 77 49 39 33 118 117 129 128 65 23 223 201 209 206 213 216 219 223 223 233 246 247 253 251 250 250 249 246 245 246 243 243 244 247 256
235 218 236 260 223 46 71 21 354 315 50 31 351 46 95 74 29 3 357 37 350 140 279 331 317 263 244 236 226 230 236 241 247 244 244 250 250 249 248 247 250 252 250 250 251 252 254 257 262
248 255 249 268 110 141 102 32 338 345 333 40 344 309 71 42 13 1 351 317 332 111 283 233 237 138 7 299 281 281 262 253 251 251 252 251 252 254 253 250 251 251 254 256 256 256 259 262 267
247 270 275 273 275 93 79 358 95 320 64 330 354 7 36 15 3 347 342 334 315 304 153 202 252 123 67 314 267 274 288 274 257 252 253 254 256 255 254 254 253 252 254 255 258 262 263 265 268
259 263 261 282 202 85 92 332 112 47 283 69 25 6 2 349 346 342 323 316 306 333 316 304 217 50 337 240 247 278 277 286 277 271 262 256 254 256 257 264 261 263 265 264 262 260 261 265 267
261 263 31 20 29 17 31 7 358 327 237 251 160 355 340 328 327 321 324 321 322 331 336 331 8 325 321 154 263 274 270 306 300 292 296 272 259 254 247 286 285 287 284 281 272 269 267 265 265
243 338 33 55 31 12 346 298 40 297 285 36 14 334 328 321 309 305 306 312 321 332 324 310 304 324 318 276 294 306 283 291 291 286 308 298 290 295 276 250 266 280 293 299 299 282 272 281 281
218 10 344 61 45 337 297 358 305 304 298 8 346 327 321 316 323 326 324 334 335 320 314 308 300 300 286 264 250 284 298 295 228 266 284 215 234 269 249 262 260 273 289 291 295 304 309 299 289
90 119 286 102 227 256 350 281 279 293 292 21 311 309 318 316 323 328 341 334 329 332 319 308 300 295 278 271 261 260 276 275 280 297 275 259 284 237 250 253 251 248 263 277 288 268 270 276 281
43 280 210 183 222 254 252 284 285 259 246 261 294 304 313 320 310 336 346 355 343 329 331 313 302 303 300 295 278 270 262 264 273 279 285 291 210 238 258 251 251 253 265 260 255 259 251 254 257
260 253 208 216 207 268 358 279 289 214 205 258 275 292 319 303 312 22 6 346 340 334 323 318 327 313 291 285 285 276 268 261 268 273 267 257 251 228 252 265 251 255 251 263 268 266 256 257 253
235 230 241 180 188 159 188 289 342 206 207 254 274 284 301 279 340 18 2 349 346 339 331 329 328 324 315 300 293 283 275 254 254 270 268 260 249 251 262 249 267 262 263 262 273 269 275 264 255
208 270 353 148 207 163 246 284 305 303 285 283 277 265 244 280 314 30 351 349 349 347 348 347 343 333 320 304 292 289 282 267 254 253 258 285 250 261 245 233 253 259 254 253 269 263 271 272 270
346 342 330 310 314 334 313 297 297 306 294 281 290 271 145 293 350 14 338 345 344 342 345 345 342 348 344 335 315 295 287 279 259 260 248 261 270 253 253 239 260 259 267 270 256 269 274 276 280
319 321 308 295 344 326 303 301 302 298 287 274 294 114 94 171 309 356 349 337 343 335 340 341 342 348 354 342 328 310 289 278 283 253 259 246 249 250 237 241 241 254 266 277 273 269 278 280 283
302 301 306 327 341 328 307 296 285 281 3 72 71 35 250 230 301 344 336 335 338 340 343 348 348 341 348 347 332 329 311 261 243 263 255 251 248 243 231 235 244 245 260 260 267 282 284 281 278
305 334 336 314 317 305 296 308 308 297 131 129 153 166 227 228 123 351 350 347 346 338 332 332 349 340 339 346 339 326 318 295 265 260 268 249 245 237 240 240 248 247 247 261 269 279 281 289 291
317 352 330 318 314 305 305 291 287 18 173 205 188 194 219 170 184 280 343 333 330 331 332 332 349 346 334 343 343 334 334 318 294 285 279 268 251 231 230 236 241 246 251 263 292 288 287 289 291
306 339 309 288 285 284 278 266 57 205 318 320 201 213 143 286 272 23 311 342 334 343 336 342 347 346 333 340 348 341 332 311 288 284 311 312 252 254 276 281 252 253 249 264 302 308 298 296 291
268 278 296 288 274 276 0 356 325 334 352 343 20 16 12 18 28 357 348 338 346 337 345 351 345 342 341 333 344 348 336 336 319 303 324 297 281 265 250 218 235 246 258 271 286 281 289 287 291
340 325 310 308 314 304 355 338 36 28 31 22 9 8 3 6 357 351 344 350 341 345 347 323 327 354 330 329 338 2 359 358 5 351 336 350 300 325 37 195 289 293 303 286 272 286 284 289 292
296 296 305 310 317 308 308 292 92 50 30 28 21 14 9 356 7 353 357 346 323 344 341 353 337 336 335 355 336 348 359 3 3 3 352 356 13 293 30 349 339 344 326 297 277 276 281 277 280
314 309 323 315 297 295 296 307 0 45 6 32 56 23 8 0 340 332 351 351 311 333 337 358 337 358 345 340 333 336 333 350 352 359 353 350 348 32 307 317 319 305 307 298 303 301 295 288 288
238 252 287 280 281 287 292 316 312 359 3 13 352 9 11 1 344 336 327 330 345 341 348 2 358 348 337 342 333 334 335 337 326 354 352 348 341 315 292 310 314 312 310 309 309 302 299 300 294
316 300 310 323 313 305 303 296 341 315 11 28 8 352 17 4 355 341 343 342 325 341 329 335 338 335 324 321 334 328 329 326 336 323 308 331 330 329 334 319 311 312 315 318 315 312 310 309 306
322 299 300 278 280 276 288 287 297 322 30 359 322 41 29 16 12 359 342 0 341 319 324 330 333 323 330 322 322 328 324 317 340 322 319 321 321 320 315 313 315 319 323 323 330 331 328 332 331
Wind_Speed_850mb
12 18 35 31 12 15 32 5 11 25 25 31 24 47 43 24 14 15 5 17 10 4 8 19 21 18 14 12 9 9 9 8 8 5 3 2 3 2 1 5 7 10 13 15 16 15 16 17 18
14 7 20 21 17 26 21 27 27 22 20 23 12 43 51 36 31 29 26 15 14 6 6 18 19 17 13 10 8 7 7 7 6 3 2 4 5 5 4 6 8 10 13 16 16 15 15 16 18
10 10 16 10 24 27 4 10 23 17 12 22 19 40 33 17 30 30 24 21 13 7 8 13 12 15 11 8 5 5 6 5 4 3 1 3 7 8 8 10 10 12 14 18 19 17 17 18 20
9 13 18 13 34 18 20 21 17 15 6 17 17 25 35 28 15 20 11 11 20 20 8 11 8 9 8 7 5 3 2 3 2 1 1 4 7 9 11 14 14 15 17 20 23 22 22 22 20
14 7 3 31 42 26 14 16 17 16 16 23 27 24 33 25 16 9 4 6 22 11 8 10 4 8 10 9 9 6 3 2 2 2 4 6 8 11 14 17 19 19 20 22 24 27 28 27 27
25 29 17 36 36 8 9 13 18 15 11 14 25 9 24 21 22 24 12 10 6 19 8 8 7 8 13 14 12 10 8 7 7 8 9 10 11 14 16 19 21 23 24 24 26 28 31 32 32
28 23 36 41 21 12 15 11 14 21 8 23 24 19 35 30 19 18 16 13 11 8 14 11 6 4 14 18 15 13 12 12 13 13 14 14 16 17 19 21 24 26 27 28 29 30 33 34 36
35 25 41 37 16 26 21 6 8 15 17 10 11 14 27 25 20 16 16 14 15 12 11 2 7 10 13 17 14 7 14 19 19 19 20 21 22 22 23 24 27 29 30 31 32 34 36 37 38
22 20 26 33 7 25 22 7 14 4 24 8 10 15 18 20 21 20 18 16 18 13 13 16 23 4 24 34 37 27 26 23 23 23 25 28 29 28 28 27 29 28 30 33 36 38 38 39 41
19 19 17 27 27 24 17 6 18 12 16 13 10 10 21 24 23 22 22 25 22 24 23 21 21 19 22 8 20 37 25 17 25 26 27 32 35 28 21 28 27 32 33 36 39 41 42 43 44
23 9 13 15 21 18 19 14 6 15 12 27 21 20 26 26 27 23 21 23 25 28 27 27 29 31 4 21 32 38 43 23 44 35 33 32 17 19 17 26 31 35 28 28 30 40 41 41 43
5 10 16 18 14 8 10 18 14 12 21 17 15 20 25 25 24 23 23 23 26 27 28 25 32 38 33 20 19 30 43 26 31 32 35 14 14 24 26 28 29 31 32 33 34 33 30 34 41
5 6 4 4 3 6 13 16 22 19 19 1 17 20 24 24 19 17 21 17 22 28 32 35 35 41 47 42 32 27 31 36 24 33 23 30 31 24 40 31 35 27 29 29 32 28 39 39 45
10 6 9 8 9 6 14 25 26 24 20 5 18 26 20 20 16 16 14 23 26 28 30 36 39 41 42 45 41 38 42 30 40 45 50 34 36 37 30 48 43 37 37 36 43 44 43 35 40
10 17 18 17 12 6 7 30 22 31 16 13 27 28 13 17 11 14 19 23 27 28 34 36 35 33 37 43 44 40 39 36 44 45 52 46 39 25 36 37 42 42 38 44 40 46 53 50 42
22 26 27 28 27 17 10 17 9 9 19 28 26 22 14 14 8 14 18 23 26 29 34 37 37 38 37 41 42 46 41 36 44 51 47 54 50 55 35 37 30 34 39 39 40 46 46 50 63
20 13 14 3 7 9 18 28 29 33 26 24 24 18 10 8 8 11 16 21 25 29 36 42 41 42 45 46 49 46 48 48 48 52 55 39 40 44 24 23 28 35 34 31 39 42 41 48 53
25 24 21 20 22 20 26 31 27 39 41 39 26 9 8 3 5 10 13 18 23 29 38 44 50 52 53 48 44 45 49 49 52 50 56 50 53 51 39 33 35 49 46 46 44 49 44 47 50
21 23 25 27 14 25 25 35 40 48 49 48 10 14 7 1 6 7 15 17 19 24 31 41 56 60 53 48 47 47 45 41 49 53 56 60 52 40 42 38 37 47 48 41 41 50 45 50 53
23 27 27 28 30 32 37 42 43 39 11 21 18 6 3 5 6 12 16 21 24 29 29 33 48 62 65 54 51 50 49 51 47 40 64 65 63 61 42 38 40 42 43 37 38 37 41 49 49
23 22 25 32 36 36 39 37 37 37 20 20 14 12 9 16 2 9 17 27 31 35 36 30 40 49 62 52 54 44 49 33 48 49 38 64 70 74 67 47 60 51 47 43 34 37 37 45 49
20 31 30 34 32 26 31 31 39 5 15 25 29 29 27 4 4 7 14 22 28 37 37 28 33 46 58 57 57 48 41 43 37 41 52 58 60 72 57 57 51 44 37 23 28 38 42 48 50
25 25 30 34 37 40 38 21 10 12 24 7 16 29 14 11 13 10 19 23 32 39 47 34 40 45 50 57 57 51 44 40 42 37 41 23 35 55 52 52 36 46 32 30 34 45 57 55 51
18 30 32 40 33 24 28 34 23 28 36 31 32 31 33 29 19 20 27 33 33 33 34 42 44 42 48 51 46 46 42 44 37 40 39 42 38 42 42 33 43 33 24 30 52 51 54 63 59
26 28 20 12 18 21 44 25 30 45 43 41 41 46 51 56 38 40 46 36 37 36 41 39 36 41 46 49 44 45 37 32 42 41 30 33 29 26 48 11 13 28 22 34 30 42 53 59 60
26 19 12 30 25 35 32 22 8 28 39 44 46 55 52 49 41 61 61 39 48 39 29 50 40 34 53 41 49 42 39 39 39 49 44 37 31 28 21 26 12 14 12 20 31 48 54 59 59
19 20 23 22 28 29 20 27 16 30 32 22 35 24 24 29 24 24 42 33 51 23 29 40 36 38 44 43 50 45 41 40 41 44 52 51 31 9 8 22 24 26 24 33 39 45 52 53 55
30 23 17 13 19 30 27 35 23 43 29 17 26 39 36 29 32 40 48 53 24 47 27 34 34 30 35 43 54 52 43 43 40 40 54 46 40 30 40 46 43 43 39 39 40 42 44 45 46
23 20 25 20 16 22 30 19 36 38 25 30 32 33 26 27 39 42 44 48 54 30 35 32 32 38 39 40 44 54 54 44 44 47 52 47 44 38 34 38 41 39 36 37 38 38 36 37 39
7 21 17 13 20 20 22 29 30 25 28 8 12 31 24 25 37 42 30 34 33 34 30 38 43 42 44 41 39 40 51 48 43 37 34 39 54 38 33 32 32 33 35 34 34 37 35 33 32
Wind_Direction_850mb
291 340 324 297 254 229 262 54 12 32 5 5 354 59 94 65 98 144 147 13 124 296 143 130 124 121 121 104 93 95 89 82 78 82 114 231 287 313 162 153 158 166 172 178 181 192 201 206 217
304 9 288 278 256 271 28 355 40 17 5 330 314 54 58 31 84 115 103 99 69 351 137 131 129 130 133 120 109 93 74 71 66 70 149 230 259 265 238 205 189 188 191 192 199 208 217 221 227
341 336 295 236 259 264 42 53 14 357 5 356 44 57 52 40 45 87 82 89 109 110 109 94 136 141 145 135 129 113 88 73 67 71 86 242 257 258 238 227 219 219 218 215 218 225 226 228 233
306 294 254 287 280 10 37 56 342 340 54 20 4 89 68 47 50 57 61 123 90 111 16 5 162 160 166 167 178 172 120 100 85 64 249 252 253 257 250 237 234 240 237 232 230 232 235 241 248
246 247 349 288 284 295 67 40 325 340 17 10 345 96 77 49 39 33 118 117 129 128 65 23 223 201 209 206 213 216 219 223 223 233 246 247 253 251 250 250 249 246 245 246 243 243 244 247 256
235 218 236 260 223 46 71 21 354 315 50 31 351 46 95 74 29 3 357 37 350 140 279 331 317 263 244 236 226 230 236 241 247 244 244 250 250 249 248 247 250 252 250 250 251 252 254 257 262
248 255 249 268 110 141 102 32 338 345 333 40 344 309 71 42 13 1 351 317 332 111 283 233 237 138 7 299 281 281 262 253 251 251 252 251 252 254 253 250 251 251 254 256 256 256 259 262 267
247 270 275 273 275 93 79 358 95 320 64 330 354 7 36 15 3 347 342 334 315 304 153 202 252 123 67 314 267 274 288 274 257 252 253 254 256 255 254 254 253 252 254 255 258 262 263 265 268
259 263 261 282 202 85 92 332 112 47 283 69 25 6 2 349 346 342 323 316 306 333 316 304 217 50 337 240 247 278 277 286 277 271 262 256 254 256 257 264 261 263 265 264 262 260 261 265 267
261 263 31 20 29 17 31 7 358 327 237 251 160 355 340 328 327 321 324 321 322 331 336 331 8 325 321 154 263 274 270 306 300 292 296 272 259 254 247 286 285 287 284 281 272 269 267 265 265
243 338 33 55 31 12 346 298 40 297 285 36 14 334 328 321 309 305 306 312 321 332 324 310 304 324 318 276 294 306 283 291 291 286 308 298 290 295 276 250 266 280 293 299 299 282 272 281 281
218 10 344 61 45 337 297 358 305 304 298 8 346 327 321 316 323 326 324 334 335 320 314 308 300 300 286 264 250 284 298 295 228 266 284 215 234 269 249 262 260 273 289 291 295 304 309 299 289
90 119 286 102 227 256 350 281 279 293 292 21 311 309 318 316 323 328 341 334 329 332 319 308 300 295 278 271 261 260 276 275 280 297 275 259 284 237 250 253 251 248 263 277 288 268 270 276 281
43 280 210 183 222 254 252 284 285 259 246 261 294 304 313 320 310 336 346 355 343 329 331 313 302 303 300 295 278 270 262 264 273 279 285 291 210 238 258 251 251 253 265 260 255 259 251 254 257
260 253 208 216 207 268 358 279 289 214 205 258 275 292 319 303 312 22 6 346 340 334 323 318 327 313 291 285 285 276 268 261 268 273 267 257 251 228 252 265 251 255 251 263 268 266 256 257 253
235 230 241 180 188 159 188 289 342 206 207 254 274 284 301 279 340 18 2 349 346 339 331 329 328 324 315 300 293 283 275 254 254 270 268 260 249 251 262 249 267 262 263 262 273 269 275 264 255
208 270 353 148 207 163 246 284 305 303 285 283 277 265 244 280 314 30 351 349 349 347 348 347 343 333 320 304 292 289 282 267 254 253 258 285 250 261 245 233 253 259 254 253 269 263 271 272 270
346 342 330 310 314 334 313 297 297 306 294 281 290 271 145 293 350 14 338 345 344 342 345 345 342 348 344 335 315 295 287 279 259 260 248 261 270 253 253 239 260 259 267 270 256 269 274 276 280
319 321 308 295 344 326 303 301 302 298 287 274 294 114 94 171 309 356 349 337 343 335 340 341 342 348 354 342 328 310 289 278 283 253 259 246 249 250 237 241 241 254 266 277 273 269 278 280 283
302 301 306 327 341 328 307 296 285 281 3 72 71 35 250 230 301 344 336 335 338 340 343 348 348 341 348 347 332 329 311 261 243 263 255 251 248 243 231 235 244 245 260 260 267 282 284 281 278
305 334 336 314 317 305 296 308 308 297 131 129 153 166 227 228 123 351 350 347 346 338 332 332 349 340 339 346 339 326 318 295 265 260 268 249 245 237 240 240 248 247 247 261 269 279 281 289 291
317 352 330 318 314 305 305 291 287 18 173 205 188 194 219 170 184 280 343 333 330 331 332 332 349 346 334 343 343 334 334 318 294 285 279 268 251 231 230 236 241 246 251 263 292 288 287 289 291
306 339 309 288 285 284 278 266 57 205 318 320 201 213 143 286 272 23 311 342 334 343 336 342 347 346 333 340 348 341 332 311 288 284 311 312 252 254 276 281 252 253 249 264 302 308 298 296 291
268 278 296 288 274 276 0 356 325 334 352 343 20 16 12 18 28 357 348 338 346 337 345 351 345 342 341 333 344 348 336 336 319 303 324 297 281 265 250 218 235 246 258 271 286 281 289 287 291
340 325 310 308 314 304 355 338 36 28 31 22 9 8 3 6 357 351 344 350 341 345 347 323 327 354 330 329 338 2 359 358 5 351 336 350 300 325 37 195 289 293 303 286 272 286 284 289 292
296 296 305 310 317 308 308 292 92 50 30 28 21 14 9 356 7 353 357 346 323 344 341 353 337 336 335 355 336 348 359 3 3 3 352 356 13 293 30 349 339 344 326 297 277 276 281 277 280
314 309 323 315 297 295 296 307 0 45 6 32 56 23 8 0 340 332 351 351 311 333 337 358 337 358 345 340 333 336 333 350 352 359 353 350 348 32 307 317 319 305 307 298 303 301 295 288 288
238 252 287 280 281 287 292 316 312 359 3 13 352 9 11 1 344 336 327 330 345 341 348 2 358 348 337 342 333 334 335 337 326 354 352 348 341 315 292 310 314 312 310 309 309 302 299 300 294
316 300 310 323 313 305 303 296 341 315 11 28 8 352 17 4 355 341 343 342 325 341 329 335 338 335 324 321 334 328 329 326 336 323 308 331 330 329 334 319 311 312 315 318 315 312 310 309 306
322 299 300 278 280 276 288 287 297 322 30 359 322 41 29 16 12 359 342 0 341 319 324 330 333 323 330 322 322 328 324 317 340 322 319 321 321 320 315 313 315 319 323 323 330 331 328 332 331